STARLETTE 1 7646U 75010A 25021.83613232 -.00000130 00000-0 10011-4 0 9996 2 7646 49.8256 322.9787 0205684 173.8120 186.5385 13.82338983523794 LAGEOS 1 1 08820U 76039A 25021.55384080 .00000018 00000-0 00000-0 0 9995 2 08820 109.8554 4.0795 0044160 51.3531 92.0531 6.38664948880460 EGS (AJISAI) 1 16908U 86061A 25021.90405970 -.00000081 00000-0 11409-3 0 9997 2 16908 50.0092 279.5764 0011262 319.9237 124.6996 12.44510111417074 LAGEOS 2 1 22195U 92070B 25021.16082520 -.00000009 00000-0 00000-0 0 9991 2 22195 52.6379 230.2493 0137118 323.1613 149.2140 6.47294224762271 STELLA 1 22824U 93061B 25021.79471667 -.00000027 00000-0 77212-5 0 9998 2 22824 98.8482 77.1274 0005349 287.0277 183.4337 14.27447276631970 LARES 1 38077U 12006A 25021.60307481 -.00000035 00000-0 22884-4 0 9990 2 38077 69.4895 86.0822 0008614 181.4141 178.6862 12.54931764592986